Date String (YYYY-MM-DD hh:mm:ss) UTC,Instrument flags,Ambient pressure (hPa),Sample flow (lpm),Bypass flow (lpm),Sample temperature (°C),Ambient temperature (°C),ASC tube jacket temperature (°C),LED temperature (°C),Box temperature (°C),Sample RH (%),Span deviation,Mass concentration (μg/m³),Mass concentration (μg/m³),Mass concentration (μg/m³)
DateTimeUTC,F1_M11,P_M11,Q1_M11,Q2_M11,T1_M11,T2_M11,T3_M11,T4_M11,T5_M11,U1_M11,ZSPAN_M11,X2_M11,X0_M11,X1_M11
2022-07-08 22:00:00,,0831.5,5.01,0.00,29.3,27.8,00.0,38.0,31.2,26.7,0000.0,0004.24,0012.33,0003.45
2022-07-08 22:01:00,,0831.5,5.00,0.00,29.4,28.0,00.0,38.0,31.3,26.3,0000.0,0004.25,0012.35,0003.44
2022-07-08 22:02:00,,0831.4,4.99,0.00,29.4,28.2,00.0,38.0,31.4,26.5,0000.0,0004.22,0011.95,0003.42
2022-07-08 22:03:00,,0831.5,5.00,0.00,29.4,28.0,00.0,38.0,31.4,25.8,0000.0,0004.23,0011.95,0003.41
2022-07-08 22:04:00,,0831.5,5.00,0.00,29.4,27.4,00.0,38.0,31.3,25.9,0000.0,0004.26,0012.93,0003.41
2022-07-08 22:05:00,,0831.4,5.01,0.00,29.4,27.2,00.0,38.0,31.2,26.3,0000.0,0004.32,0013.08,0003.41
2022-07-08 22:06:00,,0831.5,5.00,0.00,29.3,27.3,00.0,38.0,31.1,26.3,0000.0,0004.34,0013.87,0003.41
2022-07-08 22:07:00,,0831.5,4.99,0.00,29.3,27.4,00.0,38.0,31.1,26.4,0000.0,0004.34,0013.97,0003.41
2022-07-08 22:08:00,,0831.4,5.00,0.00,29.3,27.6,00.0,38.0,31.2,26.7,0000.0,0004.31,0013.90,0003.42
2022-07-08 22:09:00,,0831.5,5.01,0.00,29.3,27.8,00.0,38.0,31.3,26.4,0000.0,0004.28,0013.24,0003.41
2022-07-08 22:10:00,,0831.5,5.00,0.00,29.4,28.0,00.0,38.0,31.3,26.5,0000.0,0004.31,0013.80,0003.42
2022-07-08 22:11:00,,0831.5,5.00,0.00,29.4,28.1,00.0,38.0,31.4,26.3,0000.0,0004.32,0014.62,0003.44
2022-07-08 22:12:00,,0831.5,5.00,0.00,29.4,27.7,00.0,38.0,31.3,25.5,0000.0,0004.26,0014.95,0003.43
2022-07-08 22:13:00,,0831.5,5.00,0.00,29.3,27.2,00.0,37.9,31.2,25.6,0000.0,0004.28,0014.64,0003.43
2022-07-08 22:14:00,,0831.5,4.99,0.00,29.3,27.2,00.0,38.0,31.1,25.3,0000.0,0004.29,0014.13,0003.43
2022-07-08 22:15:00,,0831.5,5.00,0.00,29.3,27.3,00.0,38.0,31.0,24.9,0000.0,0004.23,0012.76,0003.43
2022-07-08 22:16:00,,0831.5,5.00,0.00,29.3,27.5,00.0,38.0,31.1,24.7,0000.0,0004.16,0012.41,0003.42
2022-07-08 22:17:00,,0831.4,5.00,0.00,29.3,27.7,00.0,38.0,31.2,24.4,0000.0,0004.13,0011.81,0003.42
2022-07-08 22:18:00,,0831.3,5.00,0.00,29.3,27.9,00.0,38.0,31.3,24.9,0000.0,0004.11,0010.58,0003.41
2022-07-08 22:19:00,,0831.3,5.00,0.00,29.4,28.1,00.0,38.0,31.4,25.7,0000.0,0004.11,0010.51,0003.40
2022-07-08 22:20:00,,0831.3,4.99,0.00,29.4,28.2,00.0,38.0,31.4,26.2,0000.0,0004.14,0010.34,0003.39
2022-07-08 22:21:00,,0831.3,5.00,0.00,29.4,27.7,00.0,38.0,31.3,26.2,0000.0,0004.10,0010.23,0003.38
2022-07-08 22:22:00,,0831.3,4.99,0.00,29.4,27.3,00.0,37.9,31.2,26.2,0000.0,0004.08,0010.19,0003.37
2022-07-08 22:23:00,,0831.3,5.00,0.00,29.3,27.2,00.0,38.0,31.2,25.9,0000.0,0004.11,0009.88,0003.37
2022-07-08 22:24:00,,0831.3,5.01,0.00,29.3,27.3,00.0,38.0,31.1,26.3,0000.0,0004.12,0010.43,0003.38
2022-07-08 22:25:00,,0831.3,5.00,0.00,29.3,27.5,00.0,37.9,31.1,26.3,0000.0,0004.11,0010.34,0003.39
2022-07-08 22:26:00,,0831.3,4.98,0.00,29.3,27.7,00.0,38.0,31.2,25.9,0000.0,0004.17,0011.56,0003.40
2022-07-08 22:27:00,,0831.3,4.99,0.00,29.3,27.9,00.0,38.0,31.3,25.7,0000.0,0004.18,0012.46,0003.41
2022-07-08 22:28:00,,0831.2,5.00,0.00,29.4,28.1,00.0,38.0,31.4,25.0,0000.0,0004.20,0012.81,0003.41
2022-07-08 22:29:00,,0831.2,5.00,0.00,29.4,28.0,00.0,38.0,31.4,25.2,0000.0,0004.21,0012.84,0003.40
2022-07-08 22:30:00,,0831.2,5.00,0.00,29.4,27.4,00.0,37.9,31.3,24.9,0000.0,0004.22,0012.84,0003.39
2022-07-08 22:31:00,,0831.2,5.01,0.00,29.3,27.2,00.0,37.9,31.2,24.3,0000.0,0004.17,0013.06,0003.39
2022-07-08 22:32:00,,0831.2,5.00,0.00,29.3,27.2,00.0,38.0,31.1,24.1,0000.0,0004.14,0013.30,0003.37
2022-07-08 22:33:00,,0831.2,5.00,0.00,29.3,27.4,00.0,37.9,31.1,23.9,0000.0,0004.11,0012.66,0003.36
2022-07-08 22:34:00,,0831.2,5.00,0.00,29.3,27.6,00.0,37.9,31.1,24.0,0000.0,0004.06,0014.16,0003.34
2022-07-08 22:35:00,,0831.2,5.01,0.00,29.3,27.8,00.0,37.9,31.2,24.0,0000.0,0004.02,0013.79,0003.31
2022-07-08 22:36:00,,0831.2,5.00,0.00,29.4,28.0,00.0,37.9,31.3,23.4,0000.0,0004.01,0014.11,0003.28
2022-07-08 22:37:00,,0831.2,5.00,0.00,29.4,27.9,00.0,37.9,31.3,23.3,0000.0,0003.97,0013.88,0003.25
2022-07-08 22:38:00,,0831.1,5.00,0.00,29.3,27.3,00.0,37.9,31.2,23.4,0000.0,0003.99,0013.13,0003.24
2022-07-08 22:39:00,,0831.2,5.00,0.00,29.3,27.1,00.0,37.9,31.1,23.3,0000.0,0003.98,0013.22,0003.22
2022-07-08 22:40:00,,0831.1,5.00,0.00,29.3,27.1,00.0,37.9,31.1,23.1,0000.0,0003.99,0013.82,0003.20
2022-07-08 22:41:00,,0831.2,5.00,0.00,29.2,27.3,00.0,37.9,31.0,23.1,0000.0,0003.96,0013.76,0003.19
2022-07-08 22:42:00,,0831.2,5.00,0.00,29.2,27.5,00.0,37.9,31.1,22.9,0000.0,0003.96,0013.22,0003.16
2022-07-08 22:43:00,,0831.2,5.00,0.00,29.3,27.7,00.0,37.9,31.2,23.0,0000.0,0003.97,0013.28,0003.15
2022-07-08 22:44:00,,0831.2,5.00,0.00,29.3,27.9,00.0,37.9,31.3,22.6,0000.0,0004.01,0013.64,0003.14
2022-07-08 22:45:00,,0831.1,5.00,0.00,29.3,28.1,00.0,38.0,31.3,22.5,0000.0,0003.99,0011.95,0003.12
2022-07-08 22:46:00,,0831.2,5.01,0.00,29.4,28.0,00.0,37.9,31.4,22.9,0000.0,0003.98,0012.48,0003.10
2022-07-08 22:47:00,,0831.1,4.99,0.00,29.4,27.4,00.0,37.9,31.3,22.8,0000.0,0003.93,0012.03,0003.06
2022-07-08 22:48:00,,0831.1,5.01,0.00,29.3,27.1,00.0,37.9,31.2,22.7,0000.0,0003.88,0011.76,0003.02
2022-07-08 22:49:00,,0831.1,5.01,0.00,29.3,27.2,00.0,37.9,31.1,23.7,0000.0,0003.81,0012.02,0002.96
2022-07-08 22:50:00,,0831.1,5.00,0.00,29.3,27.3,00.0,37.9,31.0,23.2,0000.0,0003.77,0012.88,0002.93
2022-07-08 22:51:00,,0831.1,4.99,0.00,29.3,27.5,00.0,37.9,31.1,22.9,0000.0,0003.73,0012.58,0002.89
2022-07-08 22:52:00,,0831.1,5.00,0.00,29.3,27.8,00.0,37.9,31.2,22.9,0000.0,0003.70,0013.10,0002.85
2022-07-08 22:53:00,,0831.0,5.01,0.00,29.3,28.0,00.0,37.9,31.3,22.8,0000.0,0003.71,0013.12,0002.82
2022-07-08 22:54:00,,0831.1,5.00,0.00,29.4,28.1,00.0,37.9,31.4,22.6,0000.0,0003.69,0012.33,0002.80
2022-07-08 22:55:00,,0831.1,4.99,0.00,29.4,27.8,00.0,37.9,31.3,21.9,0000.0,0003.72,0012.24,0002.80
2022-07-08 22:56:00,,0831.0,5.00,0.00,29.3,27.2,00.0,37.9,31.2,21.8,0000.0,0003.73,0012.61,0002.77
2022-07-08 22:57:00,,0831.1,5.00,0.00,29.3,27.1,00.0,37.9,31.1,21.6,0000.0,0003.70,0011.87,0002.73
2022-07-08 22:58:00,,0831.1,5.00,0.00,29.3,27.3,00.0,37.9,31.1,21.8,0000.0,0003.64,0011.79,0002.69
2022-07-08 22:59:00,,0831.1,5.00,0.00,29.2,27.4,00.0,37.9,31.1,22.2,0000.0,0003.62,0011.71,0002.67
